User: anonymous   Login
Location: Unspecified
(0.0000°N, 0.0000°E)
Time: 16:10:31
(UTC+00:00)
Language:

NOAA 18 - Orbit

View from above orbital plane
View from above orbital plane
View from above satellite
View from above satellite

Ground track
Ground track

The orbit data is extracted from the following two-line orbital elements,

1 28654U 05018A   20293.40594669  .00000085  00000-0  70803-4 0  9993
2 28654  99.0298 350.9092 0013493 239.6274 120.3564 14.12547958794507
Epoch (UTC): 19 October 2020 09:44:33
Eccentricity: 0.0013493
inclination: 99.0298°
perigee height: 841 km
apogee height: 860 km
right ascension of ascending node: 350.9092°
argument of perigee: 239.6274°
revolutions per day: 14.12547958
mean anomaly at epoch: 120.3564°
orbit number at epoch: 79450

The dashed part of the orbit path shows where the satellite is in the earth's shadow,  

DLR